When you browse on this site, cookies collect data to enhance your experience and personalize the content and advertising you see.
Visit our Privacy Policy to learn more. By continuing to use the site, you agree to this use of cookies and data.

Hourly Weather Encamp

Today, 20 September, Sunday

Time Temperature Precipitation Wind Pressure Humidity
00:00 +9°C° 0 mm 1 mps 622 mmHg 91%
01:00 +9°C° 0 mm 1 mps 622 mmHg 91%
02:00 +9°C° 0 mm 1 mps 622 mmHg 90%
03:00 +9°C° 0 mm 1 mps 622 mmHg 90%
04:00 +9°C° 0 mm 1 mps 622 mmHg 91%
05:00 +9°C° 0 mm 1 mps 622 mmHg 91%
06:00 +8°C° 0 mm 1 mps 622 mmHg 91%
07:00 +11°C° 0 mm 1 mps 623 mmHg 80%
08:00 +13°C° 0 mm 1 mps 625 mmHg 69%
09:00 +16°C° 0 mm 1 mps 626 mmHg 59%
10:00 +16°C° 0.1 mm 1 mps 626 mmHg 60%
11:00 +16°C° 0.1 mm 1 mps 626 mmHg 60%
12:00 +16°C° 0.1 mm 2 mps 625 mmHg 61%
13:00 +16°C° 0.6 mm 1 mps 625 mmHg 66%
14:00 +16°C° 0.6 mm 1 mps 625 mmHg 70%
15:00 +15°C° 0.6 mm 1 mps 624 mmHg 74%
16:00 +14°C° 0.6 mm 1 mps 624 mmHg 79%
17:00 +12°C° 0.6 mm 0 mps 624 mmHg 84%
18:00 +11°C° 0.6 mm 0 mps 623 mmHg 88%
19:00 +10°C° 0.2 mm 0 mps 623 mmHg 90%
20:00 +11°C° 0.2 mm 1 mps 624 mmHg 91%
21:00 +10°C° 0.2 mm 1 mps 624 mmHg 93%
22:00 +10°C° 0.1 mm 1 mps 624 mmHg 93%
23:00 +10°C° 0.1 mm 1 mps 624 mmHg 93%

Tomorrow, 21 September, Monday

Time Temperature Precipitation Wind Pressure Humidity
00:00 +9°C° 0.1 mm 0 mps 623 mmHg 93%
01:00 +8°C° 0 mm 0 mps 623 mmHg 93%
02:00 +8°C° 0 mm 0 mps 623 mmHg 93%
03:00 +9°C° 0 mm 1 mps 623 mmHg 93%
04:00 +8°C° 0 mm 0 mps 623 mmHg 92%
05:00 +8°C° 0 mm 0 mps 623 mmHg 92%
06:00 +8°C° 0 mm 0 mps 623 mmHg 92%
07:00 +11°C° 0.1 mm 1 mps 624 mmHg 88%
08:00 +12°C° 0.1 mm 1 mps 625 mmHg 83%
09:00 +14°C° 0.1 mm 1 mps 626 mmHg 79%
10:00 +15°C° 1 mm 1 mps 626 mmHg 78%
11:00 +15°C° 1 mm 1 mps 626 mmHg 78%
12:00 +15°C° 1 mm 1 mps 626 mmHg 77%
13:00 +15°C° 1.6 mm 1 mps 625 mmHg 80%
14:00 +14°C° 1.6 mm 1 mps 625 mmHg 82%
15:00 +14°C° 1.6 mm 1 mps 625 mmHg 85%
16:00 +13°C° 1.2 mm 1 mps 624 mmHg 88%
17:00 +11°C° 1.2 mm 0 mps 624 mmHg 91%
18:00 +10°C° 1.2 mm 0 mps 623 mmHg 94%
19:00 +10°C° 0.7 mm 0 mps 623 mmHg 94%
20:00 +10°C° 0.7 mm 0 mps 624 mmHg 94%
21:00 +9°C° 0.7 mm 0 mps 624 mmHg 94%
22:00 +9°C° 0.3 mm 0 mps 623 mmHg 94%
23:00 +9°C° 0.3 mm 0 mps 623 mmHg 94%

Day after tomorrow, 22 September, Tuesday

Time Temperature Precipitation Wind Pressure Humidity
00:00 +8°C° 0.3 mm 0 mps 623 mmHg 93%
01:00 +8°C° 0.1 mm 0 mps 623 mmHg 93%
02:00 +8°C° 0.1 mm 0 mps 622 mmHg 93%
03:00 +7°C° 0.1 mm 0 mps 622 mmHg 93%
04:00 +7°C° 0 mm 0 mps 622 mmHg 93%
05:00 +7°C° 0 mm 0 mps 622 mmHg 93%
06:00 +8°C° 0 mm 1 mps 622 mmHg 92%
07:00 +10°C° 0.1 mm 1 mps 622 mmHg 87%
08:00 +12°C° 0.1 mm 1 mps 623 mmHg 82%
09:00 +14°C° 0.1 mm 1 mps 624 mmHg 77%
10:00 +14°C° 0.6 mm 2 mps 624 mmHg 73%
11:00 +15°C° 0.6 mm 2 mps 624 mmHg 69%
12:00 +16°C° 0.6 mm 2 mps 624 mmHg 65%
13:00 +16°C° 0.4 mm 2 mps 624 mmHg 63%
14:00 +15°C° 0.4 mm 2 mps 623 mmHg 62%
15:00 +15°C° 0.4 mm 2 mps 623 mmHg 60%
16:00 +14°C° 0.2 mm 2 mps 622 mmHg 65%
17:00 +12°C° 0.2 mm 2 mps 621 mmHg 70%
18:00 +10°C° 0.2 mm 1 mps 620 mmHg 75%
19:00 +9°C° 0 mm 1 mps 620 mmHg 75%
20:00 +9°C° 0 mm 1 mps 620 mmHg 75%
21:00 +8°C° 0 mm 1 mps 620 mmHg 75%
22:00 +8°C° 0 mm 1 mps 620 mmHg 74%
23:00 +8°C° 0 mm 1 mps 620 mmHg 74%

23 September, Wednesday

Time Temperature Precipitation Wind Pressure Humidity
00:00 +8°C° 0 mm 1 mps 620 mmHg 73%
01:00 +8°C° 0 mm 1 mps 619 mmHg 76%
02:00 +8°C° 0 mm 1 mps 619 mmHg 78%
03:00 +8°C° 0 mm 1 mps 619 mmHg 80%
04:00 +8°C° 0 mm 1 mps 619 mmHg 82%
05:00 +8°C° 0 mm 1 mps 619 mmHg 83%
06:00 +8°C° 0 mm 1 mps 619 mmHg 85%
07:00 +10°C° 0 mm 1 mps 620 mmHg 76%
08:00 +13°C° 0 mm 1 mps 621 mmHg 68%
09:00 +15°C° 0 mm 1 mps 622 mmHg 60%
10:00 +16°C° 0 mm 2 mps 622 mmHg 58%
11:00 +17°C° 0 mm 2 mps 623 mmHg 56%
12:00 +18°C° 0 mm 2 mps 623 mmHg 53%
13:00 +17°C° 0.5 mm 2 mps 622 mmHg 58%
14:00 +16°C° 0.5 mm 2 mps 622 mmHg 63%
15:00 +16°C° 0.5 mm 2 mps 621 mmHg 68%
16:00 +14°C° 0.4 mm 2 mps 621 mmHg 75%
17:00 +13°C° 0.4 mm 1 mps 620 mmHg 82%
18:00 +11°C° 0.4 mm 1 mps 620 mmHg 88%
19:00 +11°C° 0 mm 1 mps 620 mmHg 89%
20:00 +10°C° 0 mm 1 mps 620 mmHg 90%
21:00 +10°C° 0 mm 1 mps 621 mmHg 91%
22:00 +9°C° 0 mm 1 mps 621 mmHg 90%
23:00 +9°C° 0 mm 1 mps 621 mmHg 90%

24 September, Thursday

Time Temperature Precipitation Wind Pressure Humidity
00:00 +9°C° 0 mm 1 mps 621 mmHg 89%
01:00 +9°C° 0.1 mm 1 mps 621 mmHg 89%
02:00 +10°C° 0.1 mm 1 mps 621 mmHg 89%
03:00 +10°C° 0.1 mm 1 mps 621 mmHg 89%
04:00 +10°C° 0.1 mm 1 mps 620 mmHg 90%
05:00 +9°C° 0.1 mm 1 mps 620 mmHg 92%
06:00 +9°C° 0.1 mm 1 mps 620 mmHg 93%
07:00 +10°C° 0.3 mm 1 mps 621 mmHg 92%
08:00 +9°C° 0.3 mm 2 mps 621 mmHg 91%
09:00 +10°C° 0.3 mm 2 mps 621 mmHg 90%
10:00 +12°C° 0.2 mm 2 mps 622 mmHg 84%
11:00 +13°C° 0.2 mm 2 mps 622 mmHg 77%
12:00 +14°C° 0.2 mm 2 mps 622 mmHg 70%
13:00 +13°C° 0.2 mm 2 mps 622 mmHg 71%
14:00 +12°C° 0.2 mm 3 mps 622 mmHg 72%
15:00 +12°C° 0.2 mm 3 mps 622 mmHg 73%
16:00 +10°C° 0.4 mm 2 mps 622 mmHg 80%
17:00 +9°C° 0.4 mm 2 mps 621 mmHg 87%
18:00 +9°C° 0.4 mm 1 mps 621 mmHg 94%
19:00 +8°C° 0.2 mm 1 mps 621 mmHg 95%
20:00 +8°C° 0.2 mm 1 mps 621 mmHg 95%
21:00 +8°C° 0.2 mm 1 mps 622 mmHg 95%
22:00 +7°C° 0.1 mm 1 mps 622 mmHg 95%
23:00 +7°C° 0.1 mm 1 mps 622 mmHg 95%

25 September, Friday

Time Temperature Precipitation Wind Pressure Humidity
00:00 +7°C° 0.1 mm 1 mps 622 mmHg 95%
01:00 +5°C° 0.1 mm 2 mps 622 mmHg 95%
02:00 +5°C° 0.1 mm 2 mps 622 mmHg 95%
03:00 +5°C° 0.1 mm 2 mps 621 mmHg 95%
04:00 +4°C° 0 mm 2 mps 621 mmHg 94%
05:00 +4°C° 0 mm 2 mps 621 mmHg 94%
06:00 +3°C° 0 mm 2 mps 621 mmHg 93%
07:00 +5°C° 0 mm 2 mps 622 mmHg 85%
08:00 +6°C° 0 mm 2 mps 623 mmHg 76%
09:00 +8°C° 0 mm 2 mps 624 mmHg 68%
10:00 +9°C° 0 mm 2 mps 624 mmHg 61%
11:00 +10°C° 0 mm 3 mps 625 mmHg 54%
12:00 +11°C° 0 mm 3 mps 625 mmHg 48%
13:00 +11°C° 0 mm 3 mps 625 mmHg 47%
14:00 +13°C° 0 mm 2 mps 625 mmHg 47%
15:00 +13°C° 0 mm 2 mps 625 mmHg 47%
16:00 +10°C° 0 mm 2 mps 624 mmHg 54%
17:00 +9°C° 0 mm 2 mps 624 mmHg 61%
18:00 +8°C° 0 mm 1 mps 623 mmHg 69%
19:00 +8°C° 0 mm 1 mps 623 mmHg 71%
20:00 +7°C° 0 mm 1 mps 623 mmHg 73%
21:00 +7°C° 0 mm 1 mps 622 mmHg 76%
22:00 +7°C° 0 mm 1 mps 622 mmHg 76%
23:00 +7°C° 0 mm 1 mps 621 mmHg 76%
Show more